| time (UTC) | temp F | wind direction | speed MPH | gust MPH | rain 1hr in | rain 24hr in | rain mn in | humidity % | barometer mb |
| 20260502123021 | 49 | 67 | 3.0 | 11.0 | 0.00 | 0.00 | 0.00 | 55 | 868.3 |
| 20260502121524 | 49 | 54 | 7.0 | 10.0 | 0.00 | 0.00 | 0.00 | 54 | 868.4 |
| 20260502114511 | 47 | 66 | 2.0 | 8.0 | 0.00 | 0.00 | 0.00 | 53 | 868.3 |
| 20260502113011 | 46 | 23 | 0.0 | 3.0 | 0.00 | 0.00 | 0.00 | 54 | 868.2 |
| 20260502111510 | 47 | 62 | 0.0 | 3.0 | 0.00 | 0.00 | 0.00 | 54 | 868.3 |
| 20260502110009 | 46 | 46 | 3.0 | 7.0 | 0.00 | 0.00 | 0.00 | 55 | 868.3 |
| 20260502104514 | 47 | 71 | 0.0 | 4.0 | 0.00 | 0.00 | 0.00 | 55 | 868.2 |
| 20260502103007 | 47 | 59 | 0.0 | 5.0 | 0.00 | 0.00 | 0.00 | 56 | 868.2 |
| 20260502101510 | 46 | 62 | 1.0 | 5.0 | 0.00 | 0.00 | 0.00 | 56 | 868.2 |
| 20260502091504 | 43 | 75 | 0.0 | 0.0 | 0.00 | 0.00 | 0.00 | 64 | 868.0 |
| 20260502070110 | 45 | 88 | 0.0 | 3.0 | 0.00 | 0.00 | 0.00 | 59 | 868.2 |
| 20260502064551 | 46 | 126 | 0.0 | 2.0 | 0.00 | 0.00 | 0.00 | 55 | 868.2 |
| 20260502063050 | 47 | 113 | 1.0 | 3.0 | 0.00 | 0.00 | 0.00 | 52 | 868.1 |
| 20260502061545 | 47 | 50 | 0.0 | 1.0 | 0.00 | 0.00 | 0.00 | 53 | 868.1 |
| 20260502060045 | 48 | 200 | 0.0 | 0.0 | 0.00 | 0.00 | 0.00 | 51 | 868.0 |
| 20260502054541 | 49 | 200 | 0.0 | 0.0 | 0.00 | 0.00 | 0.00 | 49 | 867.9 |
| 20260502053040 | 50 | 200 | 0.0 | 1.0 | 0.00 | 0.00 | 0.00 | 47 | 867.8 |
| 20260502051551 | 51 | 200 | 0.0 | 0.0 | 0.00 | 0.00 | 0.00 | 45 | 867.8 |
| 20260502050044 | 51 | 200 | 0.0 | 0.0 | 0.00 | 0.00 | 0.00 | 43 | 867.8 |
| 20260502044543 | 52 | 200 | 0.0 | 0.0 | 0.00 | 0.00 | 0.00 | 40 | 867.7 |
| 20260502043041 | 53 | 200 | 0.0 | 0.0 | 0.00 | 0.00 | 0.00 | 42 | 867.8 |
| 20260502041537 | 55 | 200 | 0.0 | 1.0 | 0.00 | 0.00 | 0.00 | 35 | 867.6 |
| 20260502040037 | 56 | 200 | 0.0 | 1.0 | 0.00 | 0.00 | 0.00 | 34 | 867.4 |
| 20260502034536 | 57 | 200 | 0.0 | 2.0 | 0.00 | 0.00 | 0.00 | 32 | 867.3 |
| 20260502033035 | 57 | 200 | 0.0 | 2.0 | 0.00 | 0.00 | 0.00 | 33 | 867.1 |
| 20260502031536 | 57 | 200 | 0.0 | 0.0 | 0.00 | 0.00 | 0.00 | 32 | 867.0 |
| 20260502030041 | 58 | 200 | 0.0 | 0.0 | 0.00 | 0.00 | 0.00 | 32 | 866.6 |
| 20260502024535 | 59 | 200 | 0.0 | 0.0 | 0.00 | 0.00 | 0.00 | 30 | 866.5 |
| 20260502023034 | 60 | 200 | 0.0 | 2.0 | 0.00 | 0.00 | 0.00 | 30 | 866.3 |
| 20260502021533 | 61 | 200 | 1.0 | 3.0 | 0.00 | 0.00 | 0.00 | 29 | 866.3 |
| 20260502020033 | 62 | 179 | 2.0 | 4.0 | 0.00 | 0.00 | 0.00 | 29 | 866.2 |
| 20260502014535 | 62 | 178 | 2.0 | 5.0 | 0.00 | 0.00 | 0.00 | 28 | 866.1 |
| 20260502013032 | 63 | 179 | 1.0 | 5.0 | 0.00 | 0.00 | 0.00 | 28 | 866.0 |
| 20260502011532 | 63 | 180 | 3.0 | 7.0 | 0.00 | 0.00 | 0.00 | 28 | 865.9 |
| 20260502010031 | 64 | 192 | 1.0 | 7.0 | 0.00 | 0.00 | 0.00 | 28 | 865.9 |
| 20260502004530 | 64 | 267 | 2.0 | 7.0 | 0.00 | 0.00 | 0.00 | 28 | 865.9 |
| 20260502003029 | 64 | 235 | 2.0 | 7.0 | 0.00 | 0.00 | 0.00 | 27 | 865.9 |
| 20260502001529 | 65 | 182 | 2.0 | 9.0 | 0.00 | 0.00 | 0.00 | 27 | 866.0 |
| 20260502000029 | 65 | 197 | 2.0 | 7.0 | 0.00 | 0.00 | 0.00 | 27 | 866.1 |
| 20260501234535 | 65 | 171 | 3.0 | 10.0 | 0.00 | 0.00 | 0.00 | 27 | 866.1 |
| 20260501233029 | 65 | 198 | 2.0 | 10.0 | 0.00 | 0.00 | 0.00 | 26 | 866.1 |
| 20260501231526 | 65 | 261 | 2.0 | 9.0 | 0.00 | 0.00 | 0.00 | 26 | 866.1 |
| 20260501230026 | 66 | 196 | 2.0 | 7.0 | 0.00 | 0.00 | 0.00 | 24 | 866.1 |
| 20260501224528 | 66 | 244 | 1.0 | 10.0 | 0.00 | 0.00 | 0.00 | 25 | 866.2 |
| 20260501223024 | 66 | 185 | 3.0 | 9.0 | 0.00 | 0.00 | 0.00 | 24 | 866.3 |
| 20260501221524 | 66 | 120 | 3.0 | 7.0 | 0.00 | 0.00 | 0.00 | 24 | 866.5 |
| 20260501220023 | 66 | 286 | 2.0 | 7.0 | 0.00 | 0.00 | 0.00 | 24 | 866.5 |
| 20260501214536 | 66 | 96 | 1.0 | 5.0 | 0.00 | 0.00 | 0.00 | 25 | 866.6 |
| 20260501213022 | 66 | 208 | 4.0 | 9.0 | 0.00 | 0.00 | 0.00 | 25 | 866.8 |
| 20260501211521 | 66 | 215 | 2.0 | 8.0 | 0.00 | 0.00 | 0.00 | 24 | 866.9 |
| 20260501210021 | 66 | 38 | 1.0 | 4.0 | 0.00 | 0.00 | 0.00 | 25 | 866.9 |
| 20260501204518 | 66 | 175 | 1.0 | 5.0 | 0.00 | 0.00 | 0.00 | 26 | 866.9 |
| 20260501203017 | 66 | 304 | 4.0 | 8.0 | 0.00 | 0.00 | 0.00 | 24 | 867.1 |
| 20260501201516 | 65 | 189 | 2.0 | 6.0 | 0.00 | 0.00 | 0.00 | 26 | 867.0 |
| 20260501200016 | 65 | 210 | 2.0 | 7.0 | 0.00 | 0.00 | 0.00 | 25 | 867.1 |
| 20260501194515 | 65 | 305 | 2.0 | 6.0 | 0.00 | 0.00 | 0.00 | 25 | 867.3 |
| 20260501193013 | 64 | 190 | 1.0 | 7.0 | 0.00 | 0.00 | 0.00 | 25 | 867.4 |
| 20260501191513 | 65 | 250 | 2.0 | 7.0 | 0.00 | 0.00 | 0.00 | 26 | 867.5 |
| 20260501190028 | 64 | 82 | 0.0 | 4.0 | 0.00 | 0.00 | 0.00 | 25 | 867.6 |
| 20260501184513 | 64 | 195 | 2.0 | 5.0 | 0.00 | 0.00 | 0.00 | 25 | 867.8 |
| 20260501183008 | 64 | 209 | 2.0 | 6.0 | 0.00 | 0.00 | 0.00 | 26 | 867.9 |
| 20260501181513 | 63 | 311 | 4.0 | 7.0 | 0.00 | 0.00 | 0.00 | 25 | 868.0 |
| 20260501180003 | 62 | 157 | 2.0 | 6.0 | 0.00 | 0.00 | 0.00 | 30 | 868.2 |
| 20260501174559 | 61 | 5 | 0.0 | 5.0 | 0.00 | 0.00 | 0.00 | 32 | 868.3 |
| 20260501173110 | 61 | 199 | 0.0 | 6.0 | 0.00 | 0.00 | 0.00 | 32 | 868.4 |
| 20260501171551 | 61 | 177 | 4.0 | 8.0 | 0.00 | 0.00 | 0.00 | 32 | 868.4 |
| 20260501170047 | 60 | 189 | 1.0 | 5.0 | 0.00 | 0.00 | 0.00 | 33 | 868.5 |
| 20260501164548 | 59 | 138 | 0.0 | 4.0 | 0.00 | 0.00 | 0.00 | 35 | 868.5 |
| 20260501163039 | 58 | 187 | 2.0 | 5.0 | 0.00 | 0.00 | 0.00 | 36 | 868.5 |
| 20260501161536 | 58 | 148 | 0.0 | 5.0 | 0.00 | 0.00 | 0.00 | 39 | 868.4 |
| 20260501160034 | 56 | 188 | 0.0 | 4.0 | 0.00 | 0.00 | 0.00 | 40 | 868.4 |
| 20260501154526 | 55 | 178 | 1.0 | 4.0 | 0.00 | 0.00 | 0.00 | 43 | 868.4 |
| 20260501153047 | 55 | 186 | 0.0 | 4.0 | 0.00 | 0.00 | 0.00 | 45 | 868.4 |
| 20260501151518 | 53 | 300 | 0.0 | 4.0 | 0.00 | 0.00 | 0.00 | 45 | 868.5 |
| 20260501150013 | 52 | 312 | 0.0 | 4.0 | 0.00 | 0.00 | 0.00 | 46 | 868.5 |
| 20260501144515 | 50 | 178 | 0.0 | 2.0 | 0.00 | 0.00 | 0.00 | 47 | 868.5 |
| 20260501143005 | 50 | 355 | 0.0 | 0.0 | 0.00 | 0.00 | 0.00 | 52 | 868.5 |
| 20260501141615 | 47 | 360 | 0.0 | 0.0 | 0.00 | 0.00 | 0.00 | 56 | 868.3 |
| 20260501140105 | 45 | 360 | 0.0 | 2.0 | 0.00 | 0.00 | 0.00 | 66 | 868.3 |
| 20260501134552 | 42 | 142 | 0.0 | 1.0 | 0.00 | 0.00 | 0.00 | 69 | 868.1 |